Regional Weather Roundup
Issued by NWS

Home | Current Version | Previous Version | Text Only | Print | Product List | Glossary Off
Versions: 1 2 3 4 5 6 7 8 9 10 11 12 13 14 15 16 17 18 19 20 21 22 23 24 25 26 27 28 29 30 31 32 33 34 35 36 37 38 39 40 41 42 43 44 45 46 47 48 49 50

000
ASUS43 KLMK 292002
RWRKY
KENTUCKY REGIONAL WEATHER ROUNDUP
NATIONAL WEATHER SERVICE LOUISVILLE KY
400 PM EDT FRI MAY 29 2015

NOTE "FAIR" INDICATES FEW OR NO CLOUDS BELOW 12,000 FEET
WITH NO SIGNIFICANT WEATHER AND/OR OBSTRUCTIONS TO VISIBILITY.

KYZ001>023-026-027-061>063-070>075-292100-
WESTERN AND SOUTH CENTRAL KENTUCKY

CITY           SKY/WX    TMP DP  RH WIND       PRES   REMARKS
PADUCAH        PTSUNNY   83  66  56 S10       30.03F
HENDERSON      MOSUNNY   84  66  54 S8        30.03F
OWENSBORO      PTSUNNY   81  70  69 S9        30.07F
HOPKINSVILLE   SUNNY     81  70  68 S10       30.07F
BOWLING GREEN  PTSUNNY   79  67  66 SE8       30.10F
GLASGOW        NOT AVBL
$$

KYZ024-025-028>034-038-045-046-053-292100-
NORTH CENTRAL KENTUCKY

CITY           SKY/WX    TMP DP  RH WIND       PRES   REMARKS
LOUISVILLE/SDF PTSUNNY   81  65  58 SW14G23   30.09F
LOUISVILLE/LOU MOSUNNY   82  65  56 SW13G20   30.09F
FORT KNOX      PTSUNNY   80  66  63 S8G18     30.09F
$$

KYZ035>037-039>044-047>052-055>060-089>105-292100-
NORTHEAST KENTUCKY

CITY           SKY/WX    TMP DP  RH WIND       PRES   REMARKS
LEXINGTON      MOSUNNY   80  70  71 S12       30.13F
COVINGTON      NOT AVBL
FRANKFORT      SUNNY     83  66  56 S9G20     30.10F
$$

KYZ054-064>069-076>088-106>120-292100-
SOUTHEAST KENTUCKY

CITY           SKY/WX    TMP DP  RH WIND       PRES   REMARKS
JACKSON        MOSUNNY   83  66  56 CALM      30.17F
LONDON         MOSUNNY   84  60  44 SW9       30.16F
SOMERSET       NOT AVBL
MIDDLESBORO    PTSUNNY   76  68  76 CALM      30.19S
MONTICELLO     MOCLDY    76  70  82 SW5       30.18F
$$




USA.gov is the U.S. government's official web portal to all federal, state and local government web resources and services.